Stündliche Wetter Abramkovo

Heute, 17 Juni, Donnerstag

Zeit Temperatur Niederschläge Wind Luftdruck Luftfeuchtigkeit
00:00 +13°C° 0 mm 2 m/S 745 mmHg 75%
01:00 +12°C° 0 mm 2 m/S 746 mmHg 78%
02:00 +12°C° 0 mm 2 m/S 746 mmHg 81%
03:00 +12°C° 0 mm 2 m/S 746 mmHg 81%
04:00 +13°C° 0 mm 1 m/S 747 mmHg 80%
05:00 +13°C° 0 mm 1 m/S 747 mmHg 80%
06:00 +15°C° 0 mm 1 m/S 747 mmHg 72%
07:00 +19°C° 0 mm 1 m/S 747 mmHg 65%
08:00 +21°C° 0 mm 1 m/S 748 mmHg 58%
09:00 +22°C° 0 mm 1 m/S 748 mmHg 53%
10:00 +23°C° 0 mm 1 m/S 748 mmHg 49%
11:00 +25°C° 0 mm 1 m/S 749 mmHg 44%
12:00 +25°C° 0 mm 1 m/S 749 mmHg 43%
13:00 +26°C° 0 mm 1 m/S 749 mmHg 42%
14:00 +26°C° 0 mm 1 m/S 749 mmHg 41%
15:00 +26°C° 0 mm 1 m/S 748 mmHg 44%
16:00 +26°C° 0 mm 1 m/S 748 mmHg 46%
17:00 +25°C° 0 mm 1 m/S 748 mmHg 49%
18:00 +23°C° 0 mm 1 m/S 748 mmHg 58%
19:00 +21°C° 0 mm 1 m/S 748 mmHg 66%
20:00 +19°C° 0 mm 1 m/S 748 mmHg 75%
21:00 +18°C° 0 mm 1 m/S 749 mmHg 76%
22:00 +16°C° 0 mm 1 m/S 749 mmHg 78%
23:00 +15°C° 0 mm 1 m/S 749 mmHg 79%

Morgen, 18 Juni, Freitag

Zeit Temperatur Niederschläge Wind Luftdruck Luftfeuchtigkeit
00:00 +15°C° 0 mm 1 m/S 749 mmHg 80%
01:00 +14°C° 0 mm 1 m/S 749 mmHg 81%
02:00 +14°C° 0 mm 1 m/S 750 mmHg 81%
03:00 +14°C° 0 mm 1 m/S 750 mmHg 81%
04:00 +15°C° 0 mm 1 m/S 750 mmHg 81%
05:00 +15°C° 0 mm 1 m/S 750 mmHg 81%
06:00 +18°C° 0 mm 1 m/S 750 mmHg 75%
07:00 +20°C° 0 mm 1 m/S 750 mmHg 68%
08:00 +22°C° 0 mm 1 m/S 750 mmHg 62%
09:00 +23°C° 0 mm 2 m/S 750 mmHg 58%
10:00 +24°C° 0 mm 2 m/S 750 mmHg 54%
11:00 +25°C° 0 mm 2 m/S 750 mmHg 50%
12:00 +26°C° 0 mm 2 m/S 750 mmHg 48%
13:00 +26°C° 0 mm 2 m/S 750 mmHg 47%
14:00 +26°C° 0 mm 3 m/S 750 mmHg 46%
15:00 +26°C° 0 mm 2 m/S 749 mmHg 48%
16:00 +26°C° 0 mm 2 m/S 749 mmHg 50%
17:00 +26°C° 0 mm 2 m/S 749 mmHg 53%
18:00 +24°C° 0 mm 2 m/S 749 mmHg 61%
19:00 +22°C° 0 mm 1 m/S 749 mmHg 70%
20:00 +20°C° 0 mm 1 m/S 749 mmHg 78%
21:00 +19°C° 0 mm 1 m/S 749 mmHg 81%
22:00 +18°C° 0 mm 1 m/S 749 mmHg 84%
23:00 +16°C° 0 mm 2 m/S 749 mmHg 86%

übermorgen, 19 Juni, Samstag

Zeit Temperatur Niederschläge Wind Luftdruck Luftfeuchtigkeit
00:00 +15°C° 0 mm 2 m/S 749 mmHg 89%
01:00 +15°C° 0 mm 2 m/S 749 mmHg 91%
02:00 +14°C° 0 mm 2 m/S 749 mmHg 93%
03:00 +15°C° 0 mm 2 m/S 749 mmHg 92%
04:00 +15°C° 0 mm 1 m/S 749 mmHg 90%
05:00 +16°C° 0 mm 1 m/S 750 mmHg 89%
06:00 +18°C° 0 mm 2 m/S 750 mmHg 82%
07:00 +19°C° 0 mm 2 m/S 750 mmHg 75%
08:00 +21°C° 0 mm 2 m/S 750 mmHg 68%
09:00 +23°C° 0 mm 2 m/S 749 mmHg 64%
10:00 +24°C° 0 mm 3 m/S 749 mmHg 60%
11:00 +26°C° 0 mm 3 m/S 749 mmHg 55%
12:00 +26°C° 0 mm 3 m/S 749 mmHg 54%
13:00 +26°C° 0 mm 3 m/S 748 mmHg 53%
14:00 +27°C° 0 mm 3 m/S 748 mmHg 51%
15:00 +26°C° 0 mm 3 m/S 748 mmHg 54%
16:00 +26°C° 0 mm 2 m/S 748 mmHg 56%
17:00 +26°C° 0 mm 2 m/S 748 mmHg 59%
18:00 +24°C° 0 mm 2 m/S 747 mmHg 66%
19:00 +21°C° 0 mm 2 m/S 747 mmHg 74%
20:00 +21°C° 0 mm 1 m/S 747 mmHg 82%
21:00 +20°C° 0 mm 1 m/S 747 mmHg 84%
22:00 +19°C° 0 mm 1 m/S 747 mmHg 86%
23:00 +18°C° 0 mm 1 m/S 747 mmHg 89%

20 Juni, Sonntag

Zeit Temperatur Niederschläge Wind Luftdruck Luftfeuchtigkeit
00:00 +16°C° 0 mm 2 m/S 747 mmHg 91%
01:00 +16°C° 0 mm 2 m/S 747 mmHg 93%
02:00 +16°C° 0 mm 2 m/S 747 mmHg 95%
03:00 +16°C° 0 mm 2 m/S 748 mmHg 94%
04:00 +18°C° 0 mm 1 m/S 748 mmHg 93%
05:00 +18°C° 0 mm 1 m/S 748 mmHg 92%
06:00 +19°C° 0 mm 2 m/S 747 mmHg 85%
07:00 +21°C° 0 mm 2 m/S 747 mmHg 79%
08:00 +24°C° 0 mm 2 m/S 747 mmHg 72%
09:00 +25°C° 0 mm 3 m/S 747 mmHg 68%
10:00 +26°C° 0 mm 3 m/S 747 mmHg 64%
11:00 +27°C° 0 mm 3 m/S 747 mmHg 60%
12:00 +27°C° 0 mm 3 m/S 747 mmHg 59%
13:00 +28°C° 0 mm 3 m/S 747 mmHg 58%
14:00 +28°C° 0 mm 3 m/S 746 mmHg 56%
15:00 +28°C° 0 mm 3 m/S 746 mmHg 59%
16:00 +28°C° 0 mm 3 m/S 746 mmHg 61%
17:00 +28°C° 0 mm 2 m/S 746 mmHg 63%
18:00 +26°C° 0 mm 2 m/S 745 mmHg 70%
19:00 +25°C° 0 mm 2 m/S 745 mmHg 77%
20:00 +23°C° 0 mm 1 m/S 745 mmHg 84%
21:00 +22°C° 0 mm 1 m/S 745 mmHg 87%
22:00 +21°C° 0 mm 1 m/S 745 mmHg 89%
23:00 +19°C° 0 mm 2 m/S 745 mmHg 91%

21 Juni, Montag

Zeit Temperatur Niederschläge Wind Luftdruck Luftfeuchtigkeit
00:00 +19°C° 0 mm 2 m/S 745 mmHg 92%
01:00 +18°C° 0 mm 2 m/S 745 mmHg 93%
02:00 +18°C° 0 mm 2 m/S 745 mmHg 93%
03:00 +19°C° 0 mm 1 m/S 745 mmHg 92%
04:00 +19°C° 0 mm 1 m/S 745 mmHg 91%
05:00 +20°C° 0 mm 1 m/S 745 mmHg 90%
06:00 +21°C° 0 mm 1 m/S 746 mmHg 82%
07:00 +23°C° 0 mm 2 m/S 746 mmHg 74%
08:00 +25°C° 0 mm 2 m/S 746 mmHg 66%
09:00 +26°C° 0 mm 2 m/S 746 mmHg 61%
10:00 +27°C° 0 mm 3 m/S 746 mmHg 55%
11:00 +28°C° 0 mm 3 m/S 746 mmHg 49%
12:00 +29°C° 0 mm 3 m/S 745 mmHg 47%
13:00 +30°C° 0 mm 3 m/S 745 mmHg 46%
14:00 +30°C° 0 mm 2 m/S 745 mmHg 44%
15:00 +30°C° 0 mm 2 m/S 745 mmHg 48%
16:00 +30°C° 0 mm 2 m/S 745 mmHg 52%
17:00 +29°C° 0 mm 2 m/S 745 mmHg 56%
18:00 +27°C° 0 mm 2 m/S 745 mmHg 64%
19:00 +26°C° 0 mm 2 m/S 744 mmHg 72%
20:00 +24°C° 0 mm 2 m/S 744 mmHg 80%
21:00 +23°C° 0 mm 2 m/S 745 mmHg 82%
22:00 +21°C° 0 mm 2 m/S 745 mmHg 83%
23:00 +20°C° 0 mm 2 m/S 745 mmHg 85%

22 Juni, Dienstag

Zeit Temperatur Niederschläge Wind Luftdruck Luftfeuchtigkeit
00:00 +19°C° 0 mm 2 m/S 745 mmHg 88%
01:00 +19°C° 0 mm 2 m/S 745 mmHg 91%
02:00 +18°C° 0 mm 2 m/S 745 mmHg 93%
03:00 +19°C° 0 mm 2 m/S 745 mmHg 93%
04:00 +19°C° 0 mm 2 m/S 745 mmHg 93%
05:00 +20°C° 0 mm 2 m/S 745 mmHg 92%
06:00 +23°C° 0 mm 2 m/S 745 mmHg 84%
07:00 +25°C° 0 mm 3 m/S 745 mmHg 76%
08:00 +27°C° 0 mm 3 m/S 745 mmHg 69%
09:00 +28°C° 0 mm 3 m/S 746 mmHg 63%
10:00 +29°C° 0 mm 3 m/S 746 mmHg 56%
11:00 +32°C° 0 mm 4 m/S 746 mmHg 50%
12:00 +31°C° 0 mm 3 m/S 746 mmHg 49%
13:00 +33°C° 0 mm 3 m/S 746 mmHg 47%
14:00 +33°C° 0 mm 3 m/S 745 mmHg 45%
15:00 +33°C° 0 mm 3 m/S 745 mmHg 48%
16:00 +31°C° 0 mm 2 m/S 745 mmHg 52%
17:00 +31°C° 0 mm 2 m/S 745 mmHg 55%
18:00 +29°C° 0 mm 2 m/S 745 mmHg 63%
19:00 +27°C° 0 mm 2 m/S 745 mmHg 70%
20:00 +25°C° 0 mm 2 m/S 745 mmHg 78%
21:00 +24°C° 0 mm 2 m/S 745 mmHg 81%
22:00 +23°C° 0 mm 2 m/S 745 mmHg 84%
23:00 +21°C° 0 mm 2 m/S 745 mmHg 88%
Mehr zeigen

Wir brauchen deine Erlaubnis

Meteoprog und unser Service Anbieter werden persönliche Daten aufbewahren, so wie Cookies, Geräte Bezeichnung oder ähnliche Technologien von deinem Gerät und Prozess, so wie Persönliche Daten Inhalte und Werbungen, genauso wie social Media und den Verkehr zu analysieren.

  • Aufbewahrung und/oder Zugang zu deiner Geräte Informationen.

    Cookies, Geräte Bezeichnung oder andere Informationen, können aufbewahrt oder Zugang zu deinem Gerät erhalten, für den Grund, der oben angegeben wird.

  • Personalisierte Werbung und Inhalte, Messungen, Einblick in das Publikum und Produkt Entwicklung.

    Werbungen und Inhalte können personalisiert werden, basierend auf ein Profil. Mehr Daten können besser personalisierte Werbungen und Inhalte hinzufügen. Werbung und Inhalte können gezeigt und gemessen werden. Einblicke über das Publikum, welche die Werbung gesehen haben und den Inhalt, können abgeleitet werden. So wie Daten können genutzt werden, um es zu verbessern oder die Benutzer Erfahrung zu verbessern das System und die Software.

Wenn du “Ich stimme zu” klickst, erlaubst du uns, die Cookies zu benutzen die Geräte Bezeichnung, den Web oder ähnliche Technologien zu benutzen. Deine Settings, können in deinem Gerät bei deinem Browser geändert werden.

Für den bestimmten Zweck, berechtigten Interessen beruhen darauf, mehr als auf den Inhalt. Du kannst mehr darüber in unseren Privaten und Cookie Politik lesen.